Flag for France Weather past 2 weeks in Toulon, France

Now
64 °F

Clear.


Feels Like: 64 °F
Forecast: 53 / 62 °F
Wind: 17 mph from Northwest

Location: Hyeres Airport

Current Time: Apr 1, 2015 at 12:52:16 AM

Latest Report: Apr 1, 2015 at 12:00 AM


Visibility: N/A

Pressure: 29.98 "Hg

Humidity: 34%

Dew point: 36 °F

Location of ToulonLocation

Historic Weather in Toulon — Graph

°F

Toulon temperature yesterday

Maximum temperature yesterday: 73 °F (at 5:00 PM)
Minimum temperature yesterday: 63 °F (at 1:30 AM)
Average temperature yesterday: 67 °F

Past Weeks' High & Low Weather Summary

 TemperatureHumidityPressure
High73 °F (Mar 29, 3:30 PM)100% (Mar 19, 4:00 AM)30.24 "Hg (Mar 19, 4:00 AM)
Low41 °F (Mar 19, 4:00 AM)20% (Mar 27, 2:30 PM)29.42 "Hg (Mar 25, 11:00 AM)
Average57 °F65%29.92 "Hg
* Reported Mar 16 10:00 PM — Mar 31 11:30 PM, Toulon, Weather by CustomWeather, © 2015

Note: Actual official high and low records may vary slightly from our data, if they occured in-between our weather recording intervals... More about our weather records

Advertising

Toulon weather history for previous 24 hours

 ConditionsComfort  
Time TempWeatherWind HumidityBarometerVisibility
11:30 PM
Tue, Mar 31
64 °FClear.21 mph37%29.98 "HgN/A
11:00 PM66 °FClear.20 mph35%29.98 "HgN/A
10:30 PM64 °FClear.22 mph37%29.95 "HgN/A
10:00 PM66 °FClear.21 mph40%29.95 "HgN/A
9:30 PM64 °FClear.25 mph46%29.95 "HgN/A
9:00 PM66 °FClear.25 mph43%29.95 "HgN/A
8:30 PM66 °FClear.24 mph43%29.92 "HgN/A
8:00 PM68 °FClear.24 mph40%29.92 "HgN/A
7:30 PM70 °FClear.23 mph38%29.92 "HgN/A
7:00 PM70 °FClear.24 mph38%29.89 "HgN/A
6:30 PM72 °FClear.26 mph36%29.89 "HgN/A
6:00 PM73 °FClear.24 mph33%29.89 "HgN/A
5:30 PM73 °FClear.26 mph31%29.89 "HgN/A
5:00 PM73 °FClear.21 mph33%29.89 "HgN/A
4:30 PM72 °FClear.18 mph38%29.89 "HgN/A
4:00 PM72 °FClear.14 mph44%29.92 "HgN/A
3:30 PM72 °FClear.20 mph47%29.92 "HgN/A
3:00 PM72 °FClear.16 mph44%29.92 "HgN/A
2:30 PM72 °FClear.20 mph44%29.92 "HgN/A
2:00 PM70 °FClear.20 mph46%29.92 "HgN/A
1:30 PM70 °FClear.22 mph46%29.92 "HgN/A
1:00 PM70 °FClear.26 mph46%29.92 "HgN/A
12:30 PM70 °FClear.23 mph46%29.92 "HgN/A
12:00 PM70 °FClear.24 mph43%29.95 "HgN/A
11:30 AM70 °FClear.24 mph43%29.95 "HgN/A
11:00 AM68 °FClear.24 mph49%29.95 "HgN/A
10:30 AM68 °FClear.20 mph46%29.95 "HgN/A
10:00 AM66 °FClear.15 mph52%29.98 "HgN/A
9:30 AM70 °FClear.21 mph43%29.98 "HgN/A
9:00 AM68 °FClear.16 mph49%29.98 "HgN/A
8:30 AM66 °FClear.15 mph49%29.98 "HgN/A
8:00 AM64 °FClear.12 mph52%29.98 "HgN/A
7:30 AM64 °FClear.14 mph52%29.98 "HgN/A
7:00 AM64 °FClear.17 mph49%29.98 "HgN/A
6:30 AM64 °FClear.21 mph49%29.95 "HgN/A
6:00 AM64 °FClear.16 mph49%29.98 "HgN/A
5:30 AM63 °FClear.13 mph56%29.98 "HgN/A
4:30 AM64 °FClear.24 mph49%29.95 "HgN/A
4:00 AM64 °FClear.29 mph49%29.95 "HgN/A
3:30 AM63 °FClear.25 mph56%29.95 "HgN/A
3:00 AM63 °FClear.29 mph56%29.95 "HgN/A
2:30 AM63 °FClear.28 mph59%29.95 "HgN/A
2:00 AM63 °FClear.29 mph56%29.95 "HgN/A
1:30 AM63 °FClear.28 mph56%29.95 "HgN/A
1:00 AM64 °FClear.25 mph52%29.95 "HgN/A
12:30 AM64 °FClear.22 mph52%29.95 "HgN/A
12:00 AM64 °FClear.20 mph56%29.95 "HgN/A
Weather by CustomWeather, © 2015

See weather overviewHow to use our weather pages